When you browse on this site, cookies collect data to enhance your experience and personalize the content and advertising you see.
Visit our Privacy Policy to learn more. By continuing to use the site, you agree to this use of cookies and data.
  • In Österreich
  • Länderverzeichnis
  • Für 7 Tage
  • Wassertemperatur
  • Wetterkarte
  • News
  • Widgets
  • user-avatar
    Anmelden

    Stündliche Wetter Anastasivka

    Heute, 22 September, Sonntag

    Zeit Temperatur Niederschläge Wind Luftdruck Luftfeuchtigkeit
    00:00 +8°C° 0 mm 5 m/S 754 mmHg 47%
    01:00 +9°C° 0 mm 5 m/S 754 mmHg 51%
    02:00 +10°C° 0 mm 6 m/S 753 mmHg 51%
    03:00 +10°C° 0 mm 6 m/S 753 mmHg 57%
    04:00 +10°C° 0 mm 6 m/S 753 mmHg 62%
    05:00 +10°C° 0 mm 6 m/S 752 mmHg 68%
    06:00 +11°C° 0 mm 7 m/S 752 mmHg 67%
    07:00 +12°C° 0 mm 7 m/S 752 mmHg 66%
    08:00 +13°C° 0 mm 8 m/S 752 mmHg 65%
    09:00 +15°C° 0 mm 8 m/S 752 mmHg 61%
    10:00 +16°C° 0 mm 8 m/S 752 mmHg 57%
    11:00 +18°C° 0 mm 7 m/S 752 mmHg 54%
    12:00 +18°C° 0 mm 7 m/S 752 mmHg 51%
    13:00 +20°C° 0 mm 7 m/S 752 mmHg 49%
    14:00 +21°C° 0 mm 7 m/S 751 mmHg 47%
    15:00 +21°C° 0 mm 6 m/S 751 mmHg 47%
    16:00 +20°C° 0 mm 5 m/S 751 mmHg 47%
    17:00 +20°C° 0 mm 4 m/S 751 mmHg 46%
    18:00 +19°C° 0 mm 4 m/S 751 mmHg 51%
    19:00 +17°C° 0 mm 3 m/S 751 mmHg 56%
    20:00 +16°C° 0 mm 3 m/S 751 mmHg 61%
    21:00 +14°C° 0 mm 3 m/S 751 mmHg 63%
    22:00 +14°C° 0 mm 2 m/S 751 mmHg 66%
    23:00 +14°C° 0 mm 2 m/S 751 mmHg 69%

    Morgen, 23 September, Montag

    Zeit Temperatur Niederschläge Wind Luftdruck Luftfeuchtigkeit
    00:00 +14°C° 0 mm 2 m/S 751 mmHg 70%
    01:00 +12°C° 0 mm 3 m/S 751 mmHg 72%
    02:00 +12°C° 0 mm 3 m/S 751 mmHg 74%
    03:00 +12°C° 0 mm 3 m/S 751 mmHg 77%
    04:00 +11°C° 0 mm 3 m/S 751 mmHg 80%
    05:00 +11°C° 0 mm 3 m/S 751 mmHg 82%
    06:00 +12°C° 0 mm 3 m/S 751 mmHg 79%
    07:00 +13°C° 0 mm 3 m/S 751 mmHg 75%
    08:00 +14°C° 0 mm 3 m/S 752 mmHg 72%
    09:00 +16°C° 0 mm 3 m/S 752 mmHg 68%
    10:00 +17°C° 0 mm 3 m/S 752 mmHg 63%
    11:00 +18°C° 0 mm 4 m/S 752 mmHg 59%
    12:00 +18°C° 0 mm 4 m/S 752 mmHg 56%
    13:00 +18°C° 0 mm 4 m/S 752 mmHg 54%
    14:00 +18°C° 0 mm 4 m/S 752 mmHg 51%
    15:00 +17°C° 0 mm 4 m/S 752 mmHg 51%
    16:00 +17°C° 0 mm 4 m/S 752 mmHg 50%
    17:00 +15°C° 0 mm 4 m/S 752 mmHg 50%
    18:00 +14°C° 0 mm 4 m/S 752 mmHg 51%
    19:00 +13°C° 0 mm 3 m/S 753 mmHg 52%
    20:00 +12°C° 0 mm 3 m/S 753 mmHg 53%
    21:00 +12°C° 0 mm 3 m/S 753 mmHg 48%
    22:00 +12°C° 0 mm 4 m/S 753 mmHg 42%
    23:00 +12°C° 0 mm 4 m/S 753 mmHg 37%

    übermorgen, 24 September, Dienstag

    Zeit Temperatur Niederschläge Wind Luftdruck Luftfeuchtigkeit
    00:00 +12°C° 0.2 mm 4 m/S 753 mmHg 40%
    01:00 +11°C° 0.2 mm 3 m/S 753 mmHg 43%
    02:00 +10°C° 0.2 mm 3 m/S 753 mmHg 46%
    03:00 +10°C° 0.2 mm 3 m/S 753 mmHg 49%
    04:00 +9°C° 0.2 mm 3 m/S 753 mmHg 53%
    05:00 +9°C° 0.2 mm 3 m/S 753 mmHg 57%
    06:00 +9°C° 0 mm 3 m/S 753 mmHg 54%
    07:00 +10°C° 0 mm 3 m/S 753 mmHg 51%
    08:00 +10°C° 0 mm 3 m/S 754 mmHg 49%
    09:00 +12°C° 0 mm 3 m/S 753 mmHg 46%
    10:00 +14°C° 0 mm 3 m/S 753 mmHg 42%
    11:00 +17°C° 0 mm 3 m/S 753 mmHg 39%
    12:00 +18°C° 0 mm 3 m/S 753 mmHg 39%
    13:00 +19°C° 0 mm 2 m/S 752 mmHg 38%
    14:00 +19°C° 0 mm 2 m/S 752 mmHg 37%
    15:00 +19°C° 0 mm 2 m/S 752 mmHg 38%
    16:00 +19°C° 0 mm 2 m/S 752 mmHg 39%
    17:00 +18°C° 0 mm 2 m/S 751 mmHg 40%
    18:00 +17°C° 0 mm 2 m/S 751 mmHg 40%
    19:00 +14°C° 0 mm 3 m/S 752 mmHg 39%
    20:00 +13°C° 0 mm 3 m/S 752 mmHg 38%
    21:00 +13°C° 0 mm 4 m/S 752 mmHg 35%
    22:00 +13°C° 0 mm 4 m/S 752 mmHg 31%
    23:00 +13°C° 0 mm 4 m/S 752 mmHg 28%

    25 September, Mittwoch

    Zeit Temperatur Niederschläge Wind Luftdruck Luftfeuchtigkeit
    00:00 +13°C° 0 mm 3 m/S 752 mmHg 29%
    01:00 +13°C° 0 mm 3 m/S 752 mmHg 29%
    02:00 +12°C° 0 mm 3 m/S 752 mmHg 30%
    03:00 +12°C° 0 mm 3 m/S 752 mmHg 31%
    04:00 +11°C° 0 mm 3 m/S 752 mmHg 33%
    05:00 +11°C° 0 mm 3 m/S 752 mmHg 34%
    06:00 +12°C° 0 mm 3 m/S 752 mmHg 36%
    07:00 +12°C° 0 mm 3 m/S 752 mmHg 38%
    08:00 +13°C° 0 mm 3 m/S 752 mmHg 40%
    09:00 +16°C° 0 mm 3 m/S 752 mmHg 40%
    10:00 +18°C° 0 mm 3 m/S 752 mmHg 41%
    11:00 +20°C° 0 mm 3 m/S 752 mmHg 41%
    12:00 +21°C° 0 mm 3 m/S 751 mmHg 39%
    13:00 +21°C° 0 mm 3 m/S 751 mmHg 37%
    14:00 +23°C° 0 mm 2 m/S 751 mmHg 35%
    15:00 +23°C° 0 mm 2 m/S 751 mmHg 36%
    16:00 +21°C° 0 mm 2 m/S 750 mmHg 37%
    17:00 +21°C° 0 mm 2 m/S 750 mmHg 38%
    18:00 +20°C° 0 mm 3 m/S 751 mmHg 38%
    19:00 +19°C° 0 mm 3 m/S 751 mmHg 38%
    20:00 +18°C° 0 mm 4 m/S 751 mmHg 38%
    21:00 +17°C° 0 mm 3 m/S 751 mmHg 41%
    22:00 +16°C° 0 mm 3 m/S 751 mmHg 45%
    23:00 +14°C° 0 mm 3 m/S 751 mmHg 48%

    26 September, Donnerstag

    Zeit Temperatur Niederschläge Wind Luftdruck Luftfeuchtigkeit
    00:00 +13°C° 0 mm 3 m/S 751 mmHg 52%
    01:00 +14°C° 0 mm 2 m/S 751 mmHg 57%
    02:00 +13°C° 0 mm 2 m/S 751 mmHg 61%
    03:00 +13°C° 0 mm 2 m/S 751 mmHg 60%
    04:00 +12°C° 0 mm 2 m/S 751 mmHg 58%
    05:00 +12°C° 0 mm 2 m/S 751 mmHg 56%
    06:00 +12°C° 0 mm 3 m/S 751 mmHg 50%
    07:00 +13°C° 0 mm 4 m/S 751 mmHg 44%
    08:00 +14°C° 0 mm 4 m/S 751 mmHg 39%
    09:00 +16°C° 0 mm 5 m/S 751 mmHg 35%
    10:00 +17°C° 0 mm 5 m/S 751 mmHg 31%
    11:00 +20°C° 0 mm 5 m/S 751 mmHg 28%
    12:00 +20°C° 0 mm 5 m/S 751 mmHg 26%
    13:00 +20°C° 0 mm 4 m/S 750 mmHg 25%
    14:00 +21°C° 0 mm 4 m/S 750 mmHg 24%
    15:00 +20°C° 0 mm 3 m/S 750 mmHg 25%
    16:00 +19°C° 0 mm 2 m/S 749 mmHg 27%
    17:00 +19°C° 0 mm 2 m/S 749 mmHg 28%
    18:00 +18°C° 0 mm 2 m/S 749 mmHg 29%
    19:00 +19°C° 0 mm 1 m/S 749 mmHg 31%
    20:00 +18°C° 0 mm 1 m/S 749 mmHg 32%
    21:00 +18°C° 0 mm 1 m/S 749 mmHg 32%
    22:00 +18°C° 0 mm 1 m/S 749 mmHg 33%
    23:00 +16°C° 0 mm 1 m/S 748 mmHg 33%

    27 September, Freitag

    Zeit Temperatur Niederschläge Wind Luftdruck Luftfeuchtigkeit
    00:00 +16°C° 0 mm 2 m/S 748 mmHg 35%
    01:00 +16°C° 0 mm 2 m/S 748 mmHg 37%
    02:00 +15°C° 0 mm 2 m/S 748 mmHg 39%
    03:00 +15°C° 0 mm 2 m/S 748 mmHg 40%
    04:00 +15°C° 0 mm 1 m/S 748 mmHg 40%
    05:00 +15°C° 0 mm 1 m/S 748 mmHg 40%
    06:00 +16°C° 0 mm 1 m/S 748 mmHg 39%
    07:00 +16°C° 0 mm 1 m/S 748 mmHg 38%
    08:00 +18°C° 0 mm 1 m/S 748 mmHg 37%
    09:00 +19°C° 0 mm 1 m/S 748 mmHg 37%
    10:00 +20°C° 0 mm 1 m/S 748 mmHg 38%
    11:00 +20°C° 0 mm 2 m/S 749 mmHg 38%
    12:00 +21°C° 0 mm 3 m/S 748 mmHg 39%
    13:00 +22°C° 0 mm 3 m/S 748 mmHg 39%
    14:00 +23°C° 0 mm 4 m/S 748 mmHg 40%
    15:00 +22°C° 0 mm 4 m/S 748 mmHg 43%
    16:00 +22°C° 0 mm 4 m/S 748 mmHg 46%
    17:00 +21°C° 0 mm 4 m/S 748 mmHg 49%
    18:00 +19°C° 0.1 mm 4 m/S 748 mmHg 58%
    19:00 +17°C° 0.1 mm 5 m/S 749 mmHg 66%
    20:00 +15°C° 0.1 mm 5 m/S 749 mmHg 75%
    21:00 +14°C° 0 mm 5 m/S 749 mmHg 77%
    22:00 +13°C° 0 mm 4 m/S 750 mmHg 80%
    23:00 +13°C° 0 mm 3 m/S 750 mmHg 82%
    Mehr zeigen